North Pole, Alaska, United States (99705)
Lat: 64.75N, Lon: 147.35W
Wx Zone: AKZ222
Local Info
Past Weather Observations for Friday, August 28, 2015

NOTE: This archive is for the closest National Weather Service station to North Pole. Information may differ from the station used for current weather conditions.

Click here for Long-term Archive

Time Weather Temperature Dewpoint Humidity Pressure Winds Precip Visibility
23:58
Overcast
41°F / 5°C 39°F / 4°C 93% 29.71 in
(1006 mb)
E 2.3 mph
(E 4 kph)
- 10SM
22:58
Overcast
41°F / 5°C 39°F / 4°C 93% 29.74 in
(1007 mb)
E 2.3 mph
(E 4 kph)
- 10SM
22:53
Overcast
41°F / 5°C 39°F / 4°C 93% 29.74 in
(1007 mb)
E 3.5 mph
(E 6 kph)
- 10SM
22:03
Overcast
41°F / 5°C 39°F / 4°C 93% 29.74 in
(1007 mb)
S 3.5 mph
(S 6 kph)
- 10SM
21:58
Overcast
41°F / 5°C 39°F / 4°C 93% 29.74 in
(1007 mb)
SSE 3.5 mph
(SSE 6 kph)
- 10SM
21:53
Overcast
41°F / 5°C 39°F / 4°C 93% 29.74 in
(1007 mb)
SE 3.5 mph
(SE 6 kph)
- 10SM
21:43
Overcast
41°F / 5°C 39°F / 4°C 93% 29.77 in
(1008 mb)
SE 2.3 mph
(SE 4 kph)
- 10SM
21:28
Overcast
41°F / 5°C 39°F / 4°C 93% 29.77 in
(1008 mb)
SSE 2.3 mph
(SSE 4 kph)
- 10SM
21:13
Overcast
43°F / 6°C 39°F / 4°C 87% 29.77 in
(1008 mb)
SSE 4.6 mph
(SSE 7 kph)
- 10SM
20:58
Overcast
43°F / 6°C 39°F / 4°C 87% 29.77 in
(1008 mb)
SSE 4.6 mph
(SSE 7 kph)
- 10SM
19:58
Overcast
43°F / 6°C 39°F / 4°C 87% 29.77 in
(1008 mb)
S 4.6 mph
(S 7 kph)
- 10SM
19:43
Mostly Cloudy
45°F / 7°C 39°F / 4°C 81% 29.77 in
(1008 mb)
SSE 6.9 mph
(SSE 11 kph)
- 10SM
19:23
Overcast
45°F / 7°C 39°F / 4°C 81% 29.8 in
(1009 mb)
S 4.6 mph
(S 7 kph)
- 10SM
19:13
Overcast
45°F / 7°C 41°F / 5°C 87% 29.8 in
(1009 mb)
S 4.6 mph
(S 7 kph)
- 7SM
18:58
Overcast
45°F / 7°C 39°F / 4°C 81% 29.8 in
(1009 mb)
S 5.8 mph
(S 9 kph)
- 10SM
17:58
Overcast
45°F / 7°C 36°F / 2°C 71% 29.8 in
(1009 mb)
SW 5.8 mph
(SW 9 kph)
- 10SM
16:58
Overcast
46°F / 8°C 36°F / 2°C 66% 29.8 in
(1009 mb)
SSW 10.4 mph
(SSW 17 kph)
- 10SM
16:28
Overcast
46°F / 8°C 37°F / 3°C 71% 29.8 in
(1009 mb)
SW 10.4 mph
(SW 17 kph)
- 10SM
15:58
Overcast
45°F / 7°C 36°F / 2°C 71% 29.83 in
(1010 mb)
SSW 10.4 mph
(SSW 17 kph)
- 10SM
15:43
Overcast
46°F / 8°C 36°F / 2°C 66% 29.83 in
(1010 mb)
SW 10.4 mph
(SW 17 kph)
- 10SM
15:38
Overcast
46°F / 8°C 34°F / 1°C 62% 29.83 in
(1010 mb)
SW 10.4 mph
(SW 17 kph)
- 10SM
14:58
Overcast
46°F / 8°C 32°F / 0°C 57% 29.83 in
(1010 mb)
SSW 10.4 mph
(SSW 17 kph)
- 9SM
13:58
Mostly Cloudy
46°F / 8°C 32°F / 0°C 57% 29.83 in
(1010 mb)
W 10.4 mph
(W 17 kph)
- 10SM
12:58
Overcast
45°F / 7°C 32°F / 0°C 61% 29.86 in
(1011 mb)
SSW 9.2 mph
(SSW 15 kph)
0.00 in
(0.00 mm)
9SM
12:18
Overcast
45°F / 7°C 34°F / 1°C 66% 29.89 in
(1012 mb)
W 12.7 mph
(W 20 kph)
- 10SM
12:08
Overcast
43°F / 6°C 34°F / 1°C 71% 29.89 in
(1012 mb)
WNW 3.5 mph
(WNW 6 kph)
- 8SM
12:01
Overcast
Light Rain
43°F / 6°C 34°F / 1°C 71% 29.89 in
(1012 mb)
NW 8.1 mph
(NW 13 kph)
- 8SM
11:58
Overcast
Light Rain
43°F / 6°C 34°F / 1°C 71% 29.89 in
(1012 mb)
NW 9.2 mph
(NW 15 kph)
- 9SM
10:58
Overcast
43°F / 6°C 32°F / 0°C 66% 29.89 in
(1012 mb)
SSW 8.1 mph
(SSW 13 kph)
- 10SM
10:44
Overcast
43°F / 6°C 34°F / 1°C 71% 29.92 in
(1013 mb)
SSW 10.4 mph
(SSW 17 kph)
- 10SM
09:45
Overcast
41°F / 5°C 34°F / 1°C 76% 29.92 in
(1013 mb)
SSW 9.2 mph
(SSW 15 kph)
- 9SM
09:36
Overcast
Light Rain
41°F / 5°C 34°F / 1°C 76% 29.92 in
(1013 mb)
W 9.2 mph
(W 15 kph)
- 9SM
08:58
Overcast
41°F / 5°C 34°F / 1°C 76% 29.92 in
(1013 mb)
SSW 12.7 mph
(SSW 20 kph)
- 10SM
08:43
Overcast
41°F / 5°C 34°F / 1°C 76% 29.95 in
(1014 mb)
SSW 12.7 mph
(SSW 20 kph)
- 9SM
08:28
Overcast
41°F / 5°C 34°F / 1°C 76% 29.95 in
(1014 mb)
W 8.1 mph
(W 13 kph)
- 10SM
08:23
Mostly Cloudy
41°F / 5°C 34°F / 1°C 76% 29.95 in
(1014 mb)
W 8.1 mph
(W 13 kph)
- 10SM
07:58
Mostly Cloudy
41°F / 5°C 34°F / 1°C 76% 29.95 in
(1014 mb)
SSW 10.4 mph
(SSW 17 kph)
- 9SM
06:58
Overcast
41°F / 5°C 32°F / 0°C 70% 29.95 in
(1014 mb)
SSW 11.5 mph
(SSW 19 kph)
- 9SM
06:18
Overcast
39°F / 4°C 34°F / 1°C 81% 29.95 in
(1014 mb)
SSW 10.4 mph
(SSW 17 kph)
- 9SM
05:58
Mostly Cloudy
39°F / 4°C 34°F / 1°C 81% 29.95 in
(1014 mb)
SSW 5.8 mph
(SSW 9 kph)
- 9SM
04:58
Overcast
41°F / 5°C 34°F / 1°C 76% 29.95 in
(1014 mb)
SSW 8.1 mph
(SSW 13 kph)
- 10SM
03:58
Mostly Cloudy
41°F / 5°C 34°F / 1°C 76% 29.95 in
(1014 mb)
SSW 10.4 mph
(SSW 17 kph)
- 10SM
02:58
Mostly Cloudy
41°F / 5°C 34°F / 1°C 76% 29.95 in
(1014 mb)
SSW 10.4 mph
(SSW 17 kph)
- 10SM
01:58
Partly Cloudy
43°F / 6°C 36°F / 2°C 76% 29.92 in
(1013 mb)
W 10.4 mph
(W 17 kph)
- 10SM
00:58
Overcast
45°F / 7°C 36°F / 2°C 71% 29.92 in
(1013 mb)
W 10.4 mph
(W 17 kph)
- 10SM
Time Weather Temperature Dewpoint Humidity Pressure Winds Precip Visibility


Weather for websites

WeatherForYou.com, LLC is not responsible for any damages or problems caused by this service. Current weather conditions are obtained from the closest station including government and personal stations which may have varying degrees of accuracy. Weather forecasts are derived from the NOAA NDFD. Like all things, this site belongs to Jesus Christ... He just trusts us to maintain it. If you have any questions or comments email webmaster@weatherforyou.com

Copyright © 2015, WeatherForYou.com LLC. All rights reserved.